Rabat-Sale, Morocco

3:25 PM WEST on April 24, 2017 (GMT +0100)
Sale

Weather History for GMME - February, 2013

Change the Weather History Date:

Tuesday, February 19, 2013

  Actual Average Record
Temperature  
Mean Temperature 54 °F -  
Max Temperature 60 °F 65 °F 68 °F (1998)
Min Temperature 46 °F 47 °F 37 °F (2005)
Degree Days  
Heating Degree Days 11    
Growing Degree Days 4 (Base 50)    
Moisture  
Dew Point 49 °F    
Average Humidity 75    
Maximum Humidity 94    
Minimum Humidity 61    
Precipitation  
Precipitation 0.04 in 0.09 in - ()
Sea Level Pressure  
Sea Level Pressure 29.81 in    
Wind  
Wind Speed 6 mph ()    
Max Wind Speed 15 mph    
Max Gust Speed -    
Visibility 4.1 miles    
Events Rain    
Averages and records for this station are not official NWS values.
T = Trace of Precipitation, MM = Missing Value Source: Averaged Metar Reports

Daily Weather History Graph

Daily Weather History Graph

Search for Another Location

Airport or City:

Trip Planner

Search our weather history database for the weather conditions in past years. The results will help you decide how hot, cold, wet, or windy it might be!

Date:

Astronomy

Feb. 19, 2013 Rise Set
Actual Time 7:07 AM WET 6:14 PM WET
Civil Twilight 6:42 AM WET 6:40 PM WET
Nautical Twilight 6:12 AM WET 7:09 PM WET
Astronomical Twilight 5:43 AM WET 7:38 PM WET
Moon 12:43 PM WET (2/19) 2:19 AM WET (2/19)
Length of Visible Light 11h 58m
Length of Day
11h 07m
Waxing Gibbous, 65% of the Moon is Illuminated
Feb 19
Waxing Gibbous
Feb 25
Full
Mar 4
Last Quarter
Mar 11
New
Mar 19
First Quarter

Hourly Weather History & Observations

Time (WET) Temp. Dew Point Humidity Pressure Visibility Wind Dir Wind Speed Gust Speed Precip Events Conditions
12:00 AM 55 °F 52 °F 84% 29.81 in 3 mi Calm Calm - -  
12:00 AM 55.4 °F 51.8 °F 88% 29.80 in 3.1 mi Calm Calm - N/A   Mostly Cloudy
12:30 AM 57.2 °F 48.2 °F 72% 29.77 in 3.1 mi South 5.8 mph - N/A   Mostly Cloudy
1:00 AM 57.2 °F 48.2 °F 72% 29.77 in 3.1 mi Variable 1.2 mph - N/A   Mostly Cloudy
1:30 AM 57.2 °F 48.2 °F 72% 29.77 in 3.1 mi Calm Calm - N/A   Mostly Cloudy
2:00 AM 59.0 °F 46.4 °F 63% 29.77 in 3.1 mi South 9.2 mph - N/A   Mostly Cloudy
2:30 AM 59.0 °F 46.4 °F 63% 29.77 in 3.1 mi SSW 9.2 mph - N/A   Mostly Cloudy
3:00 AM 57 °F 48 °F 62% 29.78 in 3 mi SW 15.0 mph - -   Partly Cloudy
3:00 AM 57.2 °F 48.2 °F 72% 29.77 in 3.1 mi SW 15.0 mph - N/A   Mostly Cloudy
3:30 AM 55.4 °F 48.2 °F 77% 29.77 in 3.1 mi SSW 8.1 mph - N/A   Mostly Cloudy
4:00 AM 55.4 °F 48.2 °F 77% 29.74 in 3.1 mi South 6.9 mph - N/A   Mostly Cloudy
5:00 AM 57.2 °F 48.2 °F 72% 29.77 in 3.1 mi South 6.9 mph - N/A   Mostly Cloudy
5:30 AM 55.4 °F 48.2 °F 77% 29.74 in 3.1 mi South 3.5 mph - N/A   Mostly Cloudy
6:00 AM 55 °F 48 °F 71% 29.77 in 3 mi Calm Calm - -   Partly Cloudy
6:00 AM 55.4 °F 48.2 °F 77% 29.74 in 3.1 mi Calm Calm - N/A   Mostly Cloudy
6:30 AM 53.6 °F 50.0 °F 88% 29.77 in 3.1 mi South 6.9 mph - N/A   Mostly Cloudy
7:00 AM 55.4 °F 50.0 °F 82% 29.77 in 3.1 mi SSW 8.1 mph - N/A   Mostly Cloudy
7:30 AM 53.6 °F 50.0 °F 88% 29.77 in 3.1 mi SSW 8.1 mph - N/A   Mostly Cloudy
8:00 AM 55.4 °F 50.0 °F 82% 29.77 in 5.0 mi SSW 6.9 mph - N/A   Mostly Cloudy
8:30 AM 57.2 °F 51.8 °F 82% 29.80 in 5.0 mi SSW 8.1 mph - N/A   Mostly Cloudy
9:00 AM 56 °F 51 °F 80% 29.81 in 5 mi WSW 8.1 mph - -   Overcast
9:00 AM 57.2 °F 51.8 °F 82% 29.80 in 5.0 mi WSW 8.1 mph - N/A   Mostly Cloudy
9:30 AM 55.4 °F 50.0 °F 82% 29.80 in 5.0 mi West 5.8 mph - N/A   Mostly Cloudy
10:00 AM 55.4 °F 53.6 °F 94% 29.80 in 3.7 mi SW 5.8 mph - N/A Rain Light Rain
10:30 AM 57.2 °F 53.6 °F 88% 29.80 in 3.7 mi SW 10.4 mph - N/A Rain Light Rain
11:00 AM 59.0 °F 53.6 °F 82% 29.80 in 5.0 mi WSW 9.2 mph - N/A   Mostly Cloudy
11:30 AM 60.8 °F 50.0 °F 68% 29.80 in 5.0 mi West 11.5 mph - N/A   Mostly Cloudy
12:00 PM 59 °F 51 °F 66% 29.82 in 5 mi West 9.2 mph - -   Partly Cloudy
12:00 PM 59.0 °F 50.0 °F 72% 29.80 in 5.0 mi West 9.2 mph - N/A   Mostly Cloudy
12:30 PM 59.0 °F 51.8 °F 77% 29.80 in 5.0 mi West 10.4 mph - N/A   Mostly Cloudy
1:00 PM 59.0 °F 51.8 °F 77% 29.80 in 5.0 mi WNW 11.5 mph - N/A   Mostly Cloudy
2:00 PM 60.8 °F 51.8 °F 72% 29.80 in 5.0 mi WNW 10.4 mph - N/A   Mostly Cloudy
2:30 PM 59.0 °F 50.0 °F 72% 29.80 in 5.0 mi WNW 12.7 mph - N/A   Mostly Cloudy
3:00 PM 59 °F 52 °F 70% 29.81 in 5 mi NW 13.8 mph - -   Mostly Cloudy
3:00 PM 59.0 °F 51.8 °F 77% 29.80 in 5.0 mi NW 13.8 mph - N/A   Mostly Cloudy
3:30 PM 59.0 °F 51.8 °F 77% 29.80 in 5.0 mi WNW 10.4 mph - N/A   Mostly Cloudy
4:00 PM 59.0 °F 48.2 °F 67% 29.80 in 5.0 mi NW 12.7 mph - N/A   Mostly Cloudy
5:00 PM 59.0 °F 48.2 °F 67% 29.80 in 5.0 mi NNW 11.5 mph - N/A   Mostly Cloudy
5:30 PM 59.0 °F 48.2 °F 67% 29.83 in 5.0 mi NNW 11.5 mph - N/A   Mostly Cloudy
6:00 PM 57 °F 47 °F 61% 29.85 in 5 mi NNW 9.2 mph - -   Mostly Cloudy
6:00 PM 57.2 °F 46.4 °F 67% 29.83 in 5.0 mi NNW 9.2 mph - N/A   Mostly Cloudy
6:30 PM 57.2 °F 46.4 °F 67% 29.86 in 5.0 mi NW 6.9 mph - N/A   Mostly Cloudy
7:00 PM 57.2 °F 46.4 °F 67% 29.86 in 5.0 mi NNW 5.8 mph - N/A   Mostly Cloudy
7:30 PM 57.2 °F 46.4 °F 67% 29.86 in 5.0 mi NNW 6.9 mph - N/A   Mostly Cloudy
8:00 PM 55.4 °F 46.4 °F 72% 29.89 in 5.0 mi NNW 6.9 mph - N/A   Mostly Cloudy
8:30 PM 55.4 °F 46.4 °F 72% 29.89 in 5.0 mi NNW 6.9 mph - N/A   Mostly Cloudy
9:00 PM 55 °F 45 °F 61% 29.92 in 4 mi Calm Calm - -   Mostly Cloudy
9:00 PM 55.4 °F 44.6 °F 67% 29.92 in 3.7 mi Calm Calm - N/A   Scattered Clouds
9:30 PM 53.6 °F 44.6 °F 72% 29.92 in 3.7 mi Calm Calm - N/A   Scattered Clouds
10:00 PM 50.0 °F 44.6 °F 82% 29.92 in 3.7 mi Calm Calm - N/A   Scattered Clouds
10:30 PM 51.8 °F 46.4 °F 82% 29.92 in 3.1 mi WSW 5.8 mph - N/A Rain Light Rain
11:00 PM 48.2 °F 44.6 °F 87% 29.92 in 3.1 mi Calm Calm - N/A   Mostly Cloudy
11:30 PM 46.4 °F 44.6 °F 93% 29.92 in 3.1 mi Calm Calm - N/A   Mostly Cloudy